Location: ???????????
(54.6970°N, 39.1477°E)
Time: 12:01:12
(UTC+00:00)

Cosmos 2219 Rocket - Pass Details

Date: 19 May 2025
Orbit: 827 x 844 km, 71.0° (Epoch: 13 June)

Event Time Altitude Azimuth Distance (km) Brightness Sun altitude
Rises 22:21:45 0° 323° (NW) 3,400 5.9 -14.2°
Reaches altitude 10° 22:24:22 10° 316° (NW) 2,459 5.0 -14.1°
Maximum altitude 22:29:27 36° 251° (WSW) 1,291 2.9 -13.9°
Enters shadow 22:32:39 20° 198° (SSW) 1,836 3.3 -13.7°
